Location: Limoges
(45.8354°N, 1.2645°E)
Time: 19:44:46
(UTC+01:00)

ISS - Pass Details

Date: 16 November 2025
Orbit: 416 x 421 km, 51.6° (Epoch: 05 December)

Event Time Altitude Azimuth Distance (km) Brightness Sun altitude
Rises 18:54:02 0° 244° (WSW) 2,361 1.6 -15.9°
Reaches altitude 10° 18:56:08 10° 245° (WSW) 1,498 0.3 -16.2°
Maximum altitude 18:59:30 81° 333° (NNW) 429 -3.8 -16.8°
Enters shadow 19:00:25 45° 53° (NE) 585 -3.5 -17.0°
